TOURFACTS.DK  
Stats and Facts from Tour de France.

Tour de France 2019 starts in 320 days
  Riders   Stages   Teams   Summits   Yearly  


 
Search by year

After 2018 - Stage 21:
 15000 starters.
  5165 different riders.
  638 teams.
  2253 stages.
  456 restdays.
  442940.60 km.
  5684 abandonnees.


Top 3
GC
Geraint Thomas83:17:13
Tom Dumoulin83:19:04
Christopher Froome83:19:37
Climb
Julian Alaphilippe170 pt.
Warren Barguil91 pt.
Rafal Majka76 pt.
Sprint
Peter Sagan477 pt.
Alexander Kristoff246 pt.
Arnaud Démare203 pt.
Youth
Pierre-Roger Latou..83:39:26
Egan Bernal83:45:05
Guillaume Martin84:01:31
Facts from Tour de France 2015
  |   Stages.  |   Stage winners.  |   Days in yellow  |   Average speed.  |   Route.  |   Teams.  |   All riders.  |   Rookies.  |  

  |   Withdrawls.  |   GC.  |   Polka  |   Green  |   White  |   Summits. (In tour)  |   Miscellaneous.  |  

Stage 13 on 17 - 07 - 2015
         Owning:    Christopher Froome      Christopher Froome      Peter Sagan      Nairo Quintana  

Pick a stage:  1 2 3 4 5 6 7 8 9 10 11 12 13 14 15 16 17 18 19 20 21
  MuretRodez | Dist: 198.50 km.
Cat: 3Côte de Saint-CirgueBELThomas De Gendt2 points 
Cat: 4Côte de la PomparieFRAAlexandre Geniez1 points 
Cat: 4Côte de la SelveNEDWilco Kelderman1 points 

Average speed for all riders in stage:  41,098 km./hr.
    Place:Name:Team:Time:Km/h:
1
BELGreg Van AvermaetUSABMC Racing Team04:43:42  +  00:00:00=41,981 
2
SVKPeter SaganRUSTinkoff Saxo04:43:42  +  00:00:00=41,981 
3
BELJan BakelantsFRAAg2r La Mondiale04:43:45  +  00:00:03=41,974 
44 GERJohn DegenkolbDEUTeam Giant Alpecin04:43:49  +  00:00:07=41,964 
55 GERPaul MartensNLDTeam Lotto NL - Jumbo04:43:49  +  00:00:07=41,964 
66 KENChristopher FroomeGBRSky Procycling04:43:49  +  00:00:07=41,964 
77 ITAVincenzo NibaliKAZAstana Pro Team04:43:49  +  00:00:07=41,964 
88 ESPAlberto ContadorRUSTinkoff Saxo04:43:49  +  00:00:07=41,964 
99 ESPAlejandro ValverdeESPMovistar Team04:43:49  +  00:00:07=41,964 
1010 USATejay Van GarderenUSABMC Racing Team04:43:49  +  00:00:07=41,964 
1111 FRATony GallopinBELLotto Soudal04:43:49  +  00:00:07=41,964 
1212 COLNairo QuintanaESPMovistar Team04:43:49  +  00:00:07=41,964 
1313 NEDRobert GesinkNLDTeam Lotto NL - Jumbo04:43:49  +  00:00:07=41,964 
1414 WALGeraint ThomasGBRSky Procycling04:43:49  +  00:00:07=41,964 
1515 ARGEduardo SepulvedaFRABretagne - Séché Environnement04:43:49  +  00:00:07=41,964 
1616 CZEZdenek StybarBELEtixx - Quick Step04:43:59  +  00:00:17=41,939 
1717 FRAWarren BarguilDEUTeam Giant Alpecin04:43:59  +  00:00:17=41,939 
1818 AUSMichael MatthewsAUSOrica - GreenEDGE04:43:59  +  00:00:17=41,939 
1919 SUIMathias FrankCHEIAM Cycling04:43:59  +  00:00:17=41,939 
2020 FRAPierre RollandFRATeam Europcar04:43:59  +  00:00:17=41,939 
2121 NEDWilco KeldermanNLDTeam Lotto NL - Jumbo04:44:06  +  00:00:24=41,922 
2222 URSTanel KangertKAZAstana Pro Team04:44:10  +  00:00:28=41,912 
2323 FRAArmindo FonsecaFRABretagne - Séché Environnement04:44:10  +  00:00:28=41,912 
2424 ESPJosé Herrada LópezESPMovistar Team04:44:10  +  00:00:28=41,912 
2525 BELSerge PauwelsZAFMTN - Qhubeka P/B Samsung04:44:10  +  00:00:28=41,912 
2626 FRARomain BardetFRAAg2r La Mondiale04:44:10  +  00:00:28=41,912 
2727 FRAMickaël CherelFRAAg2r La Mondiale04:44:10  +  00:00:28=41,912 
2828 ESPSamuel SanchezUSABMC Racing Team04:44:10  +  00:00:28=41,912 
2929 FRACyril GautierFRATeam Europcar04:44:19  +  00:00:37=41,890 
3030 BELThomas De GendtBELLotto Soudal04:44:19  +  00:00:37=41,890 
3131 NOREdvald Boasson HagenZAFMTN - Qhubeka P/B Samsung04:44:19  +  00:00:37=41,890 
3232 USAAndrew TalanskyUSATeam Cannondale - Garmin04:44:24  +  00:00:42=41,878 
3333 FRAThibaut PinotFRAFDJ04:44:24  +  00:00:42=41,878 
3434 COLJarlinson Pantano GomezCHEIAM Cycling04:44:27  +  00:00:45=41,870 
3535 NORAlexander KristoffRUSTeam Katusha04:44:27  +  00:00:45=41,870 
3636 FRAArnaud DémareFRAFDJ04:44:29  +  00:00:47=41,865 
3737 ITAMichele ScarponiKAZAstana Pro Team04:44:39  +  00:00:57=41,841 
3838 IOMMark CavendishBELEtixx - Quick Step04:44:40  +  00:00:58=41,838 
3939 ITAFilippo PozzatoITALampre-Merida04:44:40  +  00:00:58=41,838 
4040 PORNelson OliveiraITALampre-Merida04:44:40  +  00:00:58=41,838 
4141 ESPLuis Angel MateFRACofidis – Solutions Crédits04:44:40  +  00:00:58=41,838 
4242 DENLars BakBELLotto Soudal04:44:40  +  00:00:58=41,838 
4343 SLOKristjan KorenUSATeam Cannondale - Garmin04:44:55  +  00:01:13=41,802 
4444 NEDLaurens ten DamNLDTeam Lotto NL - Jumbo04:44:58  +  00:01:16=41,794 
4545 FRANicolas RocheGBRSky Procycling04:44:58  +  00:01:16=41,794 
4646 FRABenoit VaugrenardFRAFDJ04:45:00  +  00:01:18=41,789 
4747 NEDStef ClementCHEIAM Cycling04:45:05  +  00:01:23=41,777 
4848 RSAReinardt Janse Van RensburgZAFMTN - Qhubeka P/B Samsung04:45:07  +  00:01:25=41,772 
4949 NEDSteven KruijswijkNLDTeam Lotto NL - Jumbo04:45:08  +  00:01:26=41,770 
5050 BELJulien VermoteBELEtixx - Quick Step04:45:10  +  00:01:28=41,765 
5151 FRAJérémy RoyFRAFDJ04:45:10  +  00:01:28=41,765 
5252 ITAAdriano MaloriESPMovistar Team04:45:15  +  00:01:33=41,753 
5353 POLMichal GolasBELEtixx - Quick Step04:45:40  +  00:01:58=41,692 
5454 FRASylvain ChavanelCHEIAM Cycling04:45:40  +  00:01:58=41,692 
5555 CZEJan BártaDEUBora-Argon 1804:45:40  +  00:01:58=41,692 
5656 FRAAlexis VuillermozFRAAg2r La Mondiale04:45:40  +  00:01:58=41,692 
5757 PORTiago PintoRUSTeam Katusha04:45:40  +  00:01:58=41,692 
5858 SUIMichael SchärUSABMC Racing Team04:45:40  +  00:01:58=41,692 
5959 ESPHaimar ZubeldiaUSATrek Factory Racing04:45:40  +  00:01:58=41,692 
6060 SUISteve MorabitoFRAFDJ04:45:40  +  00:01:58=41,692 
6161 SUIReto HollensteinCHEIAM Cycling04:45:40  +  00:01:58=41,692 
6262 ESPRubén PlazaITALampre-Merida04:45:40  +  00:01:58=41,692 
6363 LUXBob JungelsUSATrek Factory Racing04:45:40  +  00:01:58=41,692 
6464 ENGAdam YatesAUSOrica - GreenEDGE04:45:40  +  00:01:58=41,692 
6565 FRAAngelo TulikFRATeam Europcar04:45:56  +  00:02:14=41,653 
6666 NEDLieuwe WestraKAZAstana Pro Team04:46:01  +  00:02:19=41,641 
6767 CZERoman KreuzigerRUSTinkoff Saxo04:46:01  +  00:02:19=41,641 
6868 ENGStephen CummingsZAFMTN - Qhubeka P/B Samsung04:46:01  +  00:02:19=41,641 
6969 NEDBram TankinkNLDTeam Lotto NL - Jumbo04:46:01  +  00:02:19=41,641 
7070 ITAMatteo TrentinBELEtixx - Quick Step04:46:04  +  00:02:22=41,634 
7171 FRABryan CoquardFRATeam Europcar04:46:06  +  00:02:24=41,629 
7272 COLWinner AnaconaESPMovistar Team04:46:06  +  00:02:24=41,629 
7373 AUTMarco HallerRUSTeam Katusha04:46:06  +  00:02:24=41,629 
7474 SUIMarcel WyssCHEIAM Cycling04:46:09  +  00:02:27=41,622 
7575 FRAJérôme CoppelCHEIAM Cycling04:46:09  +  00:02:27=41,622 
7676 COLRigoberto UránBELEtixx - Quick Step04:46:09  +  00:02:27=41,622 
7777 ESPGorka Izaguirre InsaustiESPMovistar Team04:46:14  +  00:02:32=41,609 
7878 ESPJonathan CastroviejoESPMovistar Team04:46:14  +  00:02:32=41,609 
7979 GEREmanuel BuchmannDEUBora-Argon 1804:46:23  +  00:02:41=41,588 
8080 FRARomain SicardFRATeam Europcar04:46:31  +  00:02:49=41,568 
8181 ERIDaniel TeklehaimanotZAFMTN - Qhubeka P/B Samsung04:46:34  +  00:02:52=41,561 
8282 FRAPierrick FédrigoFRABretagne - Séché Environnement04:46:46  +  00:03:04=41,532 
8383 RSAJacques Janse Van RensburgZAFMTN - Qhubeka P/B Samsung04:46:51  +  00:03:09=41,520 
8484 GERSimon GeschkeDEUTeam Giant Alpecin04:46:58  +  00:03:16=41,503 
8585 FRAAlexandre GeniezFRAFDJ04:47:18  +  00:03:36=41,455 
8686 FRAMatthieu LadagnousFRAFDJ04:47:18  +  00:03:36=41,455 
8787 ESPAlberto LosadaRUSTeam Katusha04:47:23  +  00:03:41=41,443 
8888 NEDBauke MollemaUSATrek Factory Racing04:47:23  +  00:03:41=41,443 
8989 FRAPerrig QuemeneurFRATeam Europcar04:47:42  +  00:04:00=41,397 
9090 ITAMatteo BonoITALampre-Merida04:48:08  +  00:04:26=41,335 
9191 ESPRafael Valls FerriITALampre-Merida04:48:08  +  00:04:26=41,335 
9292 FRAPierre-Luc PérichonFRABretagne - Séché Environnement04:48:35  +  00:04:53=41,271 
9393 FRAThomas VoecklerFRATeam Europcar04:48:45  +  00:05:03=41,247 
9494 FRAGeoffrey SoupeFRACofidis – Solutions Crédits04:49:03  +  00:05:21=41,204 
9595 NEDPieter WeeningAUSOrica - GreenEDGE04:49:13  +  00:05:31=41,180 
9696 FRAJean-Christophe PeraudFRAAg2r La Mondiale04:49:26  +  00:05:44=41,149 
9797 AUSNathan HaasUSATeam Cannondale - Garmin04:49:26  +  00:05:44=41,149 
9898 ESPMarkel IrizarUSATrek Factory Racing04:49:37  +  00:05:55=41,123 
9999 FRABrice FeilluFRABretagne - Séché Environnement04:49:37  +  00:05:55=41,123 
100100 SUIMartin ElmigerCHEIAM Cycling04:49:37  +  00:05:55=41,123 
101101 NEDWout PoelsGBRSky Procycling04:49:41  +  00:05:59=41,114 
102102 ENGDaniel MartinUSATeam Cannondale - Garmin04:49:49  +  00:06:07=41,095 
103103 ENGSimon YatesAUSOrica - GreenEDGE04:50:32  +  00:06:50=40,994 
104104 PORJosé João PimentaDEUBora-Argon 1804:51:26  +  00:07:44=40,867 
105105 FRAJulien SimonFRACofidis – Solutions Crédits04:51:53  +  00:08:11=40,804 
106106 AUSRohan DennisUSABMC Racing Team04:51:55  +  00:08:13=40,799 
107107 HRVKristijan DurasekITALampre-Merida04:52:10  +  00:08:28=40,764 
108108 COLJosé SerpaITALampre-Merida04:52:10  +  00:08:28=40,764 
109109 ITADamiano CarusoUSABMC Racing Team04:52:10  +  00:08:28=40,764 
110110 SUIDanilo WyssUSABMC Racing Team04:52:10  +  00:08:28=40,764 
111111 FRAAnthony DelaplaceFRABretagne - Séché Environnement04:52:10  +  00:08:28=40,764 
112112 FRAFlorian VachonFRABretagne - Séché Environnement04:52:10  +  00:08:28=40,764 
113113 FRANicolas EdetFRACofidis – Solutions Crédits04:52:10  +  00:08:28=40,764 
114114 FRAYohann GèneFRATeam Europcar04:52:10  +  00:08:28=40,764 
115115 CZELeopold KönigGBRSky Procycling04:52:36  +  00:08:54=40,704 
116116 NEDKoen De KortDEUTeam Giant Alpecin04:53:25  +  00:09:43=40,591 
117117 WALLuke RoweGBRSky Procycling04:53:25  +  00:09:43=40,591 
118118 ITAGiampaolo CarusoRUSTeam Katusha04:53:25  +  00:09:43=40,591 
119119 AUSRichie PorteGBRSky Procycling04:53:25  +  00:09:43=40,591 
120120 ESPDaniel NavarroFRACofidis – Solutions Crédits04:53:25  +  00:09:43=40,591 
121121 CANRyder HesjedalUSATeam Cannondale - Garmin04:53:25  +  00:09:43=40,591 
122122 ESPJoaquim RodriguezRUSTeam Katusha04:53:25  +  00:09:43=40,591 
123123 ERIMerhawi GhebremedhinZAFMTN - Qhubeka P/B Samsung04:53:25  +  00:09:43=40,591 
124124 FRAFlorian SénéchalFRACofidis – Solutions Crédits04:53:25  +  00:09:43=40,591 
125125 RSALouis MeintjesZAFMTN - Qhubeka P/B Samsung04:53:25  +  00:09:43=40,591 
126126 AUSMichael RogersRUSTinkoff Saxo04:53:25  +  00:09:43=40,591 
127127 ITAJacopo GuarnieriRUSTeam Katusha04:53:45  +  00:10:03=40,545 
128128 ITADaniel OssUSABMC Racing Team04:53:45  +  00:10:03=40,545 
129129 KAZDmitriy GruzdevKAZAstana Pro Team04:53:45  +  00:10:03=40,545 
130130 ITAManuel QuinziatoUSABMC Racing Team04:55:04  +  00:11:22=40,364 
131131 FRAArnaud GérardFRABretagne - Séché Environnement04:55:04  +  00:11:22=40,364 
132132 GERPaul VossDEUBora-Argon 1804:55:06  +  00:11:24=40,359 
133133 ITAMatteo TosattoRUSTinkoff Saxo04:55:06  +  00:11:24=40,359 
134134 SUIGregory RastUSATrek Factory Racing04:55:06  +  00:11:24=40,359 
135135 AUSLuke DurbridgeAUSOrica - GreenEDGE04:55:06  +  00:11:24=40,359 
136136 CANSvein TuftAUSOrica - GreenEDGE04:55:06  +  00:11:24=40,359 
137137 ENGIan StannardGBRSky Procycling04:55:08  +  00:11:26=40,355 
138138 POLRafal MajkaRUSTinkoff Saxo04:55:08  +  00:11:26=40,355 
139139 POLMichal KwiatkowskiBELEtixx - Quick Step04:55:08  +  00:11:26=40,355 
140140 POLBartosz HuzarskiDEUBora-Argon 1804:55:08  +  00:11:26=40,355 
141141 FRADamien GaudinFRAAg2r La Mondiale04:55:08  +  00:11:26=40,355 
142142 IOMPeter KennaughGBRSky Procycling04:55:45  +  00:12:03=40,270 
143143 NEDDylan Van BaarleUSATeam Cannondale - Garmin04:55:52  +  00:12:10=40,255 
144144 NEDJos Van EmdenNLDTeam Lotto NL - Jumbo04:55:52  +  00:12:10=40,255 
145145 AUSAdam HansenBELLotto Soudal04:55:52  +  00:12:10=40,255 
146146 ITADavide CimolaiITALampre-Merida04:55:52  +  00:12:10=40,255 
147147 UKRAndriy GrivkoKAZAstana Pro Team04:55:52  +  00:12:10=40,255 
148148 NEDRoy CurversDEUTeam Giant Alpecin04:55:52  +  00:12:10=40,255 
149149 FRAFrédéric BrunFRABretagne - Séché Environnement04:55:52  +  00:12:10=40,255 
150150 BELStijn DevolderUSATrek Factory Racing04:55:52  +  00:12:10=40,255 
151151 BELJens DebusschereBELLotto Soudal04:55:52  +  00:12:10=40,255 
152152 AUTMatthias BrändleCHEIAM Cycling04:55:52  +  00:12:10=40,255 
153153 AUSMark RenshawBELEtixx - Quick Step04:55:52  +  00:12:10=40,255 
154154 FRASébastien ChavanelFRAFDJ04:55:52  +  00:12:10=40,255 
155155 USATyler FarrarZAFMTN - Qhubeka P/B Samsung04:55:52  +  00:12:10=40,255 
156156 DENMichael ValgrenRUSTinkoff Saxo04:55:52  +  00:12:10=40,255 
157157 LUXLaurent DidierUSATrek Factory Racing04:55:52  +  00:12:10=40,255 
158158 COLJulián ArredondoUSATrek Factory Racing04:55:52  +  00:12:10=40,255 
159159 BELSep VanmarckeNLDTeam Lotto NL - Jumbo04:55:52  +  00:12:10=40,255 
160160 SUIJakob FuglsangKAZAstana Pro Team04:55:52  +  00:12:10=40,255 
161161 GERAndré GreipelBELLotto Soudal04:55:52  +  00:12:10=40,255 
162162 GERMarcel SiebergBELLotto Soudal04:55:52  +  00:12:10=40,255 
163163 NEDTom LeezerNLDTeam Lotto NL - Jumbo04:55:52  +  00:12:10=40,255 
164164 FRAChristophe RiblonFRAAg2r La Mondiale04:55:52  +  00:12:10=40,255 
165165 NEDAlbert TimmerDEUTeam Giant Alpecin04:55:59  +  00:12:17=40,239 
166166 BELTim WellensBELLotto Soudal04:56:16  +  00:12:34=40,200 
167167 FRAChristophe LaporteFRACofidis – Solutions Crédits04:56:21  +  00:12:39=40,189 
168168 FRABryan NauleauFRATeam Europcar05:05:07  +  00:21:25=39,034 
169169 AUTGeorg PreidlerDEUTeam Giant Alpecin05:05:07  +  00:21:25=39,034 
170170 ESPImanol ErvitiESPMovistar Team05:05:07  +  00:21:25=39,034 
171171 BELKenneth VanbilsenFRACofidis – Solutions Crédits05:05:07  +  00:21:25=39,034 
172172 NEDSebastian LangeveldUSATeam Cannondale - Garmin05:05:07  +  00:21:25=39,034 
173173 URSRamunas NavardauskasUSATeam Cannondale - Garmin05:05:07  +  00:21:25=39,034 
174174 NEDRamon SinkeldamDEUTeam Giant Alpecin05:05:19  +  00:21:37=39,009 
175175 BELSam BennettDEUBora-Argon 1805:05:19  +  00:21:37=39,009 

Todays birthdays.

1878  Jean Novo
1883  Jules Chabas
1890  Ange Aubry
1893  Roger Marye
1913  Paul Maye
1914  Lucien Vlaemynck
1915  Alphonse Antoine
1932  Rolf Graf
1953  Julio Rubiano
1959  Jos Haex
1959  Gerard Veldscholten
1963  Pablo Moreno
1964  Juan Castillo
1977  Iban Mayo
1994  Fernando Gaviria